contact:dominique.lefevre@mio.osupytheas.fr, maurice.libes@osupytheas.fr, didier.mallarino@osupytheas.fr
Project:EMSO http://www.emso-fr.org/EMSO-France
Depth: 2436.0 m
Title:EMSO Ligure Ouest : Data MII capteur MICROCAT
DateTime_Computer,Latitude,Longitude,Temperature,Conductivity,Pressure,DateTime_Instrument
DateTime_Computer,Latitude,Longitude,degC,S m-1,dbar,DateTime_Instrument
2023-09-08T00:02:03Z,42.805,6.029,13.3034,4.60099,2470.763,2023-9-08T02:04:24Z
2023-09-08T00:05:06Z,42.805,6.029,13.3039,4.60105,2470.787,2023-9-08T02:07:27Z
2023-09-08T00:08:09Z,42.805,6.029,13.3030,4.60100,2470.763,2023-9-08T02:10:30Z
2023-09-08T00:11:12Z,42.805,6.029,13.3029,4.60103,2470.754,2023-9-08T02:13:33Z
2023-09-08T00:14:15Z,42.805,6.029,13.3033,4.60104,2470.787,2023-9-08T02:16:36Z
2023-09-08T00:17:18Z,42.805,6.029,13.3029,4.60100,2470.81,2023-9-08T02:19:39Z
2023-09-08T00:20:21Z,42.805,6.029,13.3033,4.60099,2470.777,2023-9-08T02:22:42Z
2023-09-08T00:23:24Z,42.805,6.029,13.3028,4.60098,2470.8,2023-9-08T02:25:45Z
2023-09-08T00:26:27Z,42.805,6.029,13.3031,4.60099,2470.763,2023-9-08T02:28:49Z
2023-09-08T00:29:30Z,42.805,6.029,13.3030,4.60104,2470.777,2023-9-08T02:31:52Z
2023-09-08T00:32:33Z,42.805,6.029,13.3031,4.60104,2470.81,2023-9-08T02:34:55Z
2023-09-08T00:35:36Z,42.805,6.029,13.3029,4.60099,2470.763,2023-9-08T02:37:58Z
2023-09-08T00:38:39Z,42.805,6.029,13.3031,4.60102,2470.787,2023-9-08T02:41:01Z
2023-09-08T00:41:43Z,42.805,6.029,13.3035,4.60099,2470.787,2023-9-08T02:44:04Z
2023-09-08T00:44:46Z,42.805,6.029,13.3029,4.60101,2470.787,2023-9-08T02:47:07Z
2023-09-08T00:47:49Z,42.805,6.029,13.3030,4.60101,2470.74,2023-9-08T02:50:10Z
2023-09-08T00:50:52Z,42.805,6.029,13.3035,4.60102,2470.74,2023-9-08T02:53:13Z
2023-09-08T00:53:55Z,42.805,6.029,13.3034,4.60101,2470.763,2023-9-08T02:56:16Z
2023-09-08T00:56:58Z,42.805,6.029,13.3029,4.60102,2470.763,2023-9-08T02:59:19Z
2023-09-08T01:00:01Z,42.805,6.029,13.3030,4.60099,2470.824,2023-9-08T03:02:22Z
2023-09-08T01:03:04Z,42.805,6.029,13.3032,4.60099,2470.81,2023-9-08T03:05:25Z
2023-09-08T01:06:07Z,42.805,6.029,13.3026,4.60096,2470.787,2023-9-08T03:08:28Z
2023-09-08T01:09:10Z,42.805,6.029,13.3031,4.60098,2470.787,2023-9-08T03:11:32Z
2023-09-08T01:12:13Z,42.805,6.029,13.3026,4.60095,2470.787,2023-9-08T03:14:35Z
2023-09-08T01:15:16Z,42.805,6.029,13.3029,4.60098,2470.763,2023-9-08T03:17:38Z
2023-09-08T01:18:19Z,42.805,6.029,13.3033,4.60097,2470.763,2023-9-08T03:20:41Z
2023-09-08T01:21:22Z,42.805,6.029,13.3031,4.60104,2470.763,2023-9-08T03:23:44Z
2023-09-08T01:24:26Z,42.805,6.029,13.3033,4.60102,2470.763,2023-9-08T03:26:47Z
2023-09-08T01:27:29Z,42.805,6.029,13.3029,4.60102,2470.787,2023-9-08T03:29:50Z
2023-09-08T01:30:32Z,42.805,6.029,13.3031,4.60104,2470.787,2023-9-08T03:32:53Z
2023-09-08T01:33:35Z,42.805,6.029,13.3031,4.60101,2470.787,2023-9-08T03:35:56Z
2023-09-08T01:36:38Z,42.805,6.029,13.3028,4.60104,2470.8,2023-9-08T03:38:59Z
2023-09-08T01:39:41Z,42.805,6.029,13.3035,4.60102,2470.763,2023-9-08T03:42:02Z
2023-09-08T01:42:44Z,42.805,6.029,13.3024,4.60097,2470.787,2023-9-08T03:45:05Z
2023-09-08T01:45:47Z,42.805,6.029,13.3028,4.60097,2470.8,2023-9-08T03:48:08Z
2023-09-08T01:48:50Z,42.805,6.029,13.3029,4.60107,2470.763,2023-9-08T03:51:11Z
2023-09-08T01:51:53Z,42.805,6.029,13.3028,4.60094,2470.81,2023-9-08T03:54:15Z
2023-09-08T01:54:56Z,42.805,6.029,13.3029,4.60098,2470.763,2023-9-08T03:57:18Z
2023-09-08T01:57:59Z,42.805,6.029,13.3026,4.60099,2470.74,2023-9-08T04:00:21Z
2023-09-08T02:01:02Z,42.805,6.029,13.3034,4.60103,2470.777,2023-9-08T04:03:24Z
2023-09-08T02:04:06Z,42.805,6.029,13.3036,4.60104,2470.763,2023-9-08T04:06:27Z
2023-09-08T02:07:09Z,42.805,6.029,13.3025,4.60094,2470.763,2023-9-08T04:09:30Z
2023-09-08T02:10:12Z,42.805,6.029,13.3026,4.60095,2470.763,2023-9-08T04:12:33Z
2023-09-08T02:13:15Z,42.805,6.029,13.3029,4.60096,2470.777,2023-9-08T04:15:36Z
2023-09-08T02:16:18Z,42.805,6.029,13.3029,4.60097,2470.8,2023-9-08T04:18:39Z
2023-09-08T02:19:21Z,42.805,6.029,13.3024,4.60095,2470.763,2023-9-08T04:21:42Z
2023-09-08T02:22:24Z,42.805,6.029,13.3030,4.60102,2470.8,2023-9-08T04:24:45Z
2023-09-08T02:25:27Z,42.805,6.029,13.3030,4.60098,2470.777,2023-9-08T04:27:48Z
2023-09-08T02:28:30Z,42.805,6.029,13.3028,4.60099,2470.763,2023-9-08T04:30:51Z
2023-09-08T02:31:33Z,42.805,6.029,13.3029,4.60100,2470.754,2023-9-08T04:33:55Z
2023-09-08T02:34:36Z,42.805,6.029,13.3027,4.60097,2470.763,2023-9-08T04:36:58Z
2023-09-08T02:37:39Z,42.805,6.029,13.3035,4.60105,2470.777,2023-9-08T04:40:01Z
2023-09-08T02:40:42Z,42.805,6.029,13.3030,4.60102,2470.763,2023-9-08T04:43:04Z
2023-09-08T02:43:46Z,42.805,6.029,13.3029,4.60094,2470.717,2023-9-08T04:46:07Z
2023-09-08T02:46:49Z,42.805,6.029,13.3022,4.60093,2470.74,2023-9-08T04:49:10Z
2023-09-08T02:49:52Z,42.805,6.029,13.3028,4.60097,2470.8,2023-9-08T04:52:13Z
2023-09-08T02:52:55Z,42.805,6.029,13.3029,4.60098,2470.777,2023-9-08T04:55:16Z
2023-09-08T02:55:58Z,42.805,6.029,13.3029,4.60098,2470.763,2023-9-08T04:58:19Z
2023-09-08T02:59:01Z,42.805,6.029,13.3032,4.60097,2470.763,2023-9-08T05:01:22Z
2023-09-08T03:02:04Z,42.805,6.029,13.3030,4.60097,2470.763,2023-9-08T05:04:25Z
2023-09-08T03:05:07Z,42.805,6.029,13.3030,4.60097,2470.787,2023-9-08T05:07:28Z
2023-09-08T03:08:10Z,42.805,6.029,13.3028,4.60102,2470.74,2023-9-08T05:10:31Z
2023-09-08T03:11:13Z,42.805,6.029,13.3031,4.60099,2470.777,2023-9-08T05:13:35Z
2023-09-08T03:14:16Z,42.805,6.029,13.3029,4.60099,2470.787,2023-9-08T05:16:38Z
2023-09-08T03:17:19Z,42.805,6.029,13.3031,4.60102,2470.74,2023-9-08T05:19:41Z
2023-09-08T03:20:22Z,42.805,6.029,13.3029,4.60094,2470.74,2023-9-08T05:22:44Z
2023-09-08T03:23:25Z,42.805,6.029,13.3026,4.60095,2470.74,2023-9-08T05:25:47Z
2023-09-08T03:26:29Z,42.805,6.029,13.3034,4.60096,2470.787,2023-9-08T05:28:50Z
2023-09-08T03:29:32Z,42.805,6.029,13.3028,4.60097,2470.763,2023-9-08T05:31:53Z
2023-09-08T03:32:35Z,42.805,6.029,13.3034,4.60104,2470.763,2023-9-08T05:34:56Z
2023-09-08T03:35:38Z,42.805,6.029,13.3031,4.60105,2470.763,2023-9-08T05:37:59Z
2023-09-08T03:38:41Z,42.805,6.029,13.3026,4.60101,2470.8,2023-9-08T05:41:02Z
2023-09-08T03:41:44Z,42.805,6.029,13.3030,4.60097,2470.754,2023-9-08T05:44:05Z
2023-09-08T03:44:47Z,42.805,6.029,13.3027,4.60098,2470.763,2023-9-08T05:47:08Z
2023-09-08T03:47:50Z,42.805,6.029,13.3031,4.60104,2470.763,2023-9-08T05:50:11Z
2023-09-08T03:50:53Z,42.805,6.029,13.3030,4.60103,2470.74,2023-9-08T05:53:15Z
2023-09-08T03:53:56Z,42.805,6.029,13.3036,4.60105,2470.763,2023-9-08T05:56:18Z
2023-09-08T03:56:59Z,42.805,6.029,13.3029,4.60104,2470.74,2023-9-08T05:59:21Z
2023-09-08T04:00:02Z,42.805,6.029,13.3025,4.60095,2470.74,2023-9-08T06:02:24Z
2023-09-08T04:03:05Z,42.805,6.029,13.3029,4.60094,2470.74,2023-9-08T06:05:27Z
2023-09-08T04:06:09Z,42.805,6.029,13.3031,4.60099,2470.717,2023-9-08T06:08:30Z
2023-09-08T04:09:12Z,42.805,6.029,13.3028,4.60098,2470.693,2023-9-08T06:11:33Z
2023-09-08T04:12:15Z,42.805,6.029,13.3026,4.60105,2470.74,2023-9-08T06:14:36Z
2023-09-08T04:15:18Z,42.805,6.029,13.3031,4.60100,2470.74,2023-9-08T06:17:39Z
2023-09-08T04:18:21Z,42.805,6.029,13.3031,4.60102,2470.74,2023-9-08T06:20:42Z
2023-09-08T04:21:24Z,42.805,6.029,13.3029,4.60100,2470.73,2023-9-08T06:23:45Z
2023-09-08T04:24:27Z,42.805,6.029,13.3043,4.60119,2470.74,2023-9-08T06:26:48Z
2023-09-08T04:27:30Z,42.805,6.029,13.3035,4.60108,2470.74,2023-9-08T06:29:51Z
2023-09-08T04:30:33Z,42.805,6.029,13.3034,4.60101,2470.787,2023-9-08T06:32:55Z
2023-09-08T04:33:36Z,42.805,6.029,13.3031,4.60121,2470.74,2023-9-08T06:35:58Z
2023-09-08T04:36:39Z,42.805,6.029,13.3029,4.60105,2470.717,2023-9-08T06:39:01Z
2023-09-08T04:39:42Z,42.805,6.029,13.3032,4.60103,2470.787,2023-9-08T06:42:04Z
2023-09-08T04:42:45Z,42.805,6.029,13.3031,4.60101,2470.717,2023-9-08T06:45:07Z
2023-09-08T04:45:49Z,42.805,6.029,13.3027,4.60096,2470.777,2023-9-08T06:48:10Z
2023-09-08T04:48:52Z,42.805,6.029,13.3031,4.60110,2470.777,2023-9-08T06:51:13Z
2023-09-08T04:51:55Z,42.805,6.029,13.3035,4.60111,2470.717,2023-9-08T06:54:16Z
2023-09-08T04:54:58Z,42.805,6.029,13.3028,4.60099,2470.763,2023-9-08T06:57:19Z
2023-09-08T04:58:01Z,42.805,6.029,13.3032,4.60105,2470.74,2023-9-08T07:00:22Z
2023-09-08T05:01:04Z,42.805,6.029,13.3035,4.60106,2470.777,2023-9-08T07:03:25Z
2023-09-08T05:04:07Z,42.805,6.029,13.3031,4.60101,2470.754,2023-9-08T07:06:28Z
2023-09-08T05:07:10Z,42.805,6.029,13.3032,4.60102,2470.754,2023-9-08T07:09:31Z
2023-09-08T05:10:13Z,42.805,6.029,13.3034,4.60103,2470.74,2023-9-08T07:12:35Z
2023-09-08T05:13:16Z,42.805,6.029,13.3041,4.60100,2470.74,2023-9-08T07:15:38Z
2023-09-08T05:16:19Z,42.805,6.029,13.3035,4.60121,2470.754,2023-9-08T07:18:41Z
2023-09-08T05:19:22Z,42.805,6.029,13.3031,4.60100,2470.754,2023-9-08T07:21:44Z
2023-09-08T05:22:25Z,42.805,6.029,13.3036,4.60104,2470.73,2023-9-08T07:24:47Z
2023-09-08T05:25:29Z,42.805,6.029,13.3032,4.60099,2470.74,2023-9-08T07:27:50Z
2023-09-08T05:28:32Z,42.805,6.029,13.3031,4.60104,2470.763,2023-9-08T07:30:53Z
2023-09-08T05:31:35Z,42.805,6.029,13.3031,4.60104,2470.74,2023-9-08T07:33:56Z
2023-09-08T05:34:38Z,42.805,6.029,13.3036,4.60096,2470.763,2023-9-08T07:36:59Z
2023-09-08T05:37:41Z,42.805,6.029,13.3032,4.60098,2470.754,2023-9-08T07:40:02Z
2023-09-08T05:40:44Z,42.805,6.029,13.3031,4.60103,2470.717,2023-9-08T07:43:05Z
2023-09-08T05:43:47Z,42.805,6.029,13.3030,4.60103,2470.74,2023-9-08T07:46:08Z
2023-09-08T05:46:50Z,42.805,6.029,13.3036,4.60103,2470.73,2023-9-08T07:49:11Z
2023-09-08T05:49:53Z,42.805,6.029,13.3031,4.60104,2470.74,2023-9-08T07:52:15Z
2023-09-08T05:52:56Z,42.805,6.029,13.3031,4.60102,2470.754,2023-9-08T07:55:18Z
2023-09-08T05:55:59Z,42.805,6.029,13.3031,4.60099,2470.754,2023-9-08T07:58:21Z
2023-09-08T05:59:02Z,42.805,6.029,13.3033,4.60101,2470.754,2023-9-08T08:01:24Z
2023-09-08T06:02:05Z,42.805,6.029,13.3034,4.60101,2470.74,2023-9-08T08:04:27Z
2023-09-08T06:05:09Z,42.805,6.029,13.3030,4.60113,2470.717,2023-9-08T08:07:30Z
2023-09-08T06:08:12Z,42.805,6.029,13.3029,4.60097,2470.73,2023-9-08T08:10:33Z
2023-09-08T06:11:15Z,42.805,6.029,13.3029,4.60099,2470.754,2023-9-08T08:13:36Z
2023-09-08T06:14:18Z,42.805,6.029,13.3033,4.60101,2470.754,2023-9-08T08:16:39Z
2023-09-08T06:17:21Z,42.805,6.029,13.3043,4.60117,2470.74,2023-9-08T08:19:42Z
2023-09-08T06:20:24Z,42.805,6.029,13.3037,4.60108,2470.717,2023-9-08T08:22:45Z
2023-09-08T06:23:27Z,42.805,6.029,13.3041,4.60107,2470.717,2023-9-08T08:25:48Z
2023-09-08T06:26:30Z,42.805,6.029,13.3031,4.60104,2470.717,2023-9-08T08:28:51Z
2023-09-08T06:29:33Z,42.805,6.029,13.3035,4.60100,2470.717,2023-9-08T08:31:55Z
2023-09-08T06:32:36Z,42.805,6.029,13.3039,4.60104,2470.717,2023-9-08T08:34:58Z
2023-09-08T06:35:39Z,42.805,6.029,13.3035,4.60099,2470.707,2023-9-08T08:38:01Z
2023-09-08T06:38:42Z,42.805,6.029,13.3040,4.60106,2470.74,2023-9-08T08:41:04Z
2023-09-08T06:41:45Z,42.805,6.029,13.3035,4.60122,2470.717,2023-9-08T08:44:07Z
2023-09-08T06:44:49Z,42.805,6.029,13.3041,4.60112,2470.754,2023-9-08T08:47:10Z
2023-09-08T06:47:52Z,42.805,6.029,13.3039,4.60123,2470.754,2023-9-08T08:50:13Z
2023-09-08T06:50:55Z,42.805,6.029,13.3036,4.60103,2470.73,2023-9-08T08:53:16Z
2023-09-08T06:53:58Z,42.805,6.029,13.3033,4.60103,2470.73,2023-9-08T08:56:19Z
2023-09-08T06:57:01Z,42.805,6.029,13.3031,4.60104,2470.693,2023-9-08T08:59:22Z
2023-09-08T07:00:04Z,42.805,6.029,13.3038,4.60111,2470.717,2023-9-08T09:02:25Z
2023-09-08T07:03:07Z,42.805,6.029,13.3032,4.60104,2470.717,2023-9-08T09:05:28Z
2023-09-08T07:06:10Z,42.805,6.029,13.3037,4.60106,2470.74,2023-9-08T09:08:31Z
2023-09-08T07:09:13Z,42.805,6.029,13.3031,4.60103,2470.707,2023-9-08T09:11:34Z
2023-09-08T07:12:16Z,42.805,6.029,13.3039,4.60107,2470.717,2023-9-08T09:14:38Z
2023-09-08T07:15:19Z,42.805,6.029,13.3034,4.60103,2470.717,2023-9-08T09:17:41Z
2023-09-08T07:18:22Z,42.805,6.029,13.3039,4.60107,2470.74,2023-9-08T09:20:44Z
2023-09-08T07:21:25Z,42.805,6.029,13.3037,4.60107,2470.707,2023-9-08T09:23:47Z
2023-09-08T07:24:29Z,42.805,6.029,13.3036,4.60107,2470.74,2023-9-08T09:26:50Z
2023-09-08T07:27:32Z,42.805,6.029,13.3035,4.60105,2470.717,2023-9-08T09:29:53Z
2023-09-08T07:30:35Z,42.805,6.029,13.3039,4.60115,2470.717,2023-9-08T09:32:56Z
2023-09-08T07:33:38Z,42.805,6.029,13.3034,4.60107,2470.717,2023-9-08T09:35:59Z
2023-09-08T07:36:41Z,42.805,6.029,13.3031,4.60102,2470.726,2023-9-08T09:39:02Z
2023-09-08T07:39:44Z,42.805,6.029,13.3038,4.60107,2470.717,2023-9-08T09:42:05Z
2023-09-08T07:42:47Z,42.805,6.029,13.3035,4.60104,2470.73,2023-9-08T09:45:08Z
2023-09-08T07:45:50Z,42.805,6.029,13.3036,4.60104,2470.73,2023-9-08T09:48:11Z
2023-09-08T07:48:53Z,42.805,6.029,13.3028,4.60101,2470.717,2023-9-08T09:51:15Z
2023-09-08T07:51:56Z,42.805,6.029,13.3034,4.60106,2470.693,2023-9-08T09:54:18Z
2023-09-08T07:54:59Z,42.805,6.029,13.3036,4.60108,2470.717,2023-9-08T09:57:21Z
2023-09-08T07:58:02Z,42.805,6.029,13.3038,4.60104,2470.717,2023-9-08T10:00:24Z
2023-09-08T08:01:05Z,42.805,6.029,13.3034,4.60104,2470.693,2023-9-08T10:03:27Z
2023-09-08T08:04:09Z,42.805,6.029,13.3034,4.60101,2470.693,2023-9-08T10:06:30Z
2023-09-08T08:07:12Z,42.805,6.029,13.3036,4.60109,2470.717,2023-9-08T10:09:33Z
2023-09-08T08:10:15Z,42.805,6.029,13.3039,4.60105,2470.717,2023-9-08T10:12:36Z
2023-09-08T08:13:18Z,42.805,6.029,13.3036,4.60112,2470.693,2023-9-08T10:15:39Z
2023-09-08T08:16:21Z,42.805,6.029,13.3041,4.60104,2470.693,2023-9-08T10:18:42Z
2023-09-08T08:19:24Z,42.805,6.029,13.3036,4.60106,2470.73,2023-9-08T10:21:45Z
2023-09-08T08:22:27Z,42.805,6.029,13.3034,4.60104,2470.717,2023-9-08T10:24:48Z
2023-09-08T08:25:30Z,42.805,6.029,13.3036,4.60106,2470.717,2023-9-08T10:27:51Z
2023-09-08T08:28:33Z,42.805,6.029,13.3036,4.60111,2470.763,2023-9-08T10:30:55Z
2023-09-08T08:31:35Z,42.805,6.029,13.3036,4.60107,2470.74,2023-9-08T10:33:56Z
2023-09-08T08:34:38Z,42.805,6.029,13.3031,4.60107,2470.717,2023-9-08T10:36:59Z
2023-09-08T08:37:41Z,42.805,6.029,13.3038,4.60105,2470.717,2023-9-08T10:40:02Z
2023-09-08T08:40:44Z,42.805,6.029,13.3034,4.60104,2470.74,2023-9-08T10:43:05Z
2023-09-08T08:43:47Z,42.805,6.029,13.3031,4.60107,2470.717,2023-9-08T10:46:09Z
2023-09-08T08:46:50Z,42.805,6.029,13.3034,4.60104,2470.754,2023-9-08T10:49:12Z
2023-09-08T08:49:53Z,42.805,6.029,13.3031,4.60101,2470.74,2023-9-08T10:52:15Z
2023-09-08T08:52:56Z,42.805,6.029,13.3043,4.60122,2470.717,2023-9-08T10:55:18Z
2023-09-08T08:56:00Z,42.805,6.029,13.3035,4.60103,2470.754,2023-9-08T10:58:21Z
2023-09-08T08:59:03Z,42.805,6.029,13.3034,4.60100,2470.717,2023-9-08T11:01:24Z
2023-09-08T09:02:06Z,42.805,6.029,13.3039,4.60117,2470.754,2023-9-08T11:04:27Z
2023-09-08T09:05:09Z,42.805,6.029,13.3030,4.60102,2470.754,2023-9-08T11:07:30Z
2023-09-08T09:08:12Z,42.805,6.029,13.3034,4.60104,2470.73,2023-9-08T11:10:33Z
2023-09-08T09:11:15Z,42.805,6.029,13.3030,4.60103,2470.717,2023-9-08T11:13:36Z
2023-09-08T09:14:18Z,42.805,6.029,13.3043,4.60119,2470.693,2023-9-08T11:16:39Z
2023-09-08T09:17:21Z,42.805,6.029,13.3036,4.60127,2470.717,2023-9-08T11:19:42Z
2023-09-08T09:20:24Z,42.805,6.029,13.3029,4.60103,2470.726,2023-9-08T11:22:46Z
2023-09-08T09:23:27Z,42.805,6.029,13.3041,4.60119,2470.754,2023-9-08T11:25:49Z
2023-09-08T09:26:30Z,42.805,6.029,13.3036,4.60106,2470.754,2023-9-08T11:28:52Z
2023-09-08T09:29:33Z,42.805,6.029,13.3034,4.60104,2470.74,2023-9-08T11:31:55Z
2023-09-08T09:32:36Z,42.805,6.029,13.3033,4.60113,2470.74,2023-9-08T11:34:58Z
2023-09-08T09:35:40Z,42.805,6.029,13.3032,4.60106,2470.717,2023-9-08T11:38:01Z
2023-09-08T09:38:43Z,42.805,6.029,13.3033,4.60104,2470.717,2023-9-08T11:41:04Z
2023-09-08T09:41:46Z,42.805,6.029,13.3033,4.60106,2470.693,2023-9-08T11:44:07Z
2023-09-08T09:44:49Z,42.805,6.029,13.3034,4.60117,2470.763,2023-9-08T11:47:10Z
2023-09-08T09:47:52Z,42.805,6.029,13.3030,4.60104,2470.74,2023-9-08T11:50:13Z
2023-09-08T09:50:55Z,42.805,6.029,13.3041,4.60111,2470.754,2023-9-08T11:53:16Z
2023-09-08T09:53:58Z,42.805,6.029,13.3036,4.60109,2470.717,2023-9-08T11:56:19Z
2023-09-08T09:57:01Z,42.805,6.029,13.3038,4.60104,2470.74,2023-9-08T11:59:23Z
2023-09-08T10:00:04Z,42.805,6.029,13.3031,4.60099,2470.754,2023-9-08T12:02:26Z
2023-09-08T10:03:07Z,42.805,6.029,13.3038,4.60104,2470.74,2023-9-08T12:05:29Z
2023-09-08T10:06:10Z,42.805,6.029,13.3032,4.60105,2470.73,2023-9-08T12:08:32Z
2023-09-08T10:09:13Z,42.805,6.029,13.3036,4.60106,2470.754,2023-9-08T12:11:35Z
2023-09-08T10:12:17Z,42.805,6.029,13.3035,4.60104,2470.74,2023-9-08T12:14:38Z
2023-09-08T10:15:20Z,42.805,6.029,13.3031,4.60099,2470.717,2023-9-08T12:17:41Z
2023-09-08T10:18:23Z,42.805,6.029,13.3034,4.60106,2470.763,2023-9-08T12:20:44Z
2023-09-08T10:21:26Z,42.805,6.029,13.3034,4.60102,2470.74,2023-9-08T12:23:47Z
2023-09-08T10:24:29Z,42.805,6.029,13.3029,4.60104,2470.74,2023-9-08T12:26:50Z
2023-09-08T10:27:32Z,42.805,6.029,13.3034,4.60103,2470.777,2023-9-08T12:29:53Z
2023-09-08T10:30:34Z,42.805,6.029,13.3034,4.60105,2470.777,2023-9-08T12:32:55Z
2023-09-08T10:33:37Z,42.805,6.029,13.3033,4.60102,2470.777,2023-9-08T12:35:58Z
2023-09-08T10:36:40Z,42.805,6.029,13.3036,4.60110,2470.74,2023-9-08T12:39:01Z
2023-09-08T10:39:43Z,42.805,6.029,13.3041,4.60111,2470.74,2023-9-08T12:42:04Z
2023-09-08T10:42:46Z,42.805,6.029,13.3034,4.60105,2470.763,2023-9-08T12:45:07Z
2023-09-08T10:45:49Z,42.805,6.029,13.3037,4.60112,2470.763,2023-9-08T12:48:10Z
2023-09-08T10:48:52Z,42.805,6.029,13.3035,4.60109,2470.763,2023-9-08T12:51:13Z
2023-09-08T10:51:55Z,42.805,6.029,13.3040,4.60108,2470.787,2023-9-08T12:54:16Z
2023-09-08T10:54:58Z,42.805,6.029,13.3037,4.60110,2470.777,2023-9-08T12:57:20Z
2023-09-08T10:58:01Z,42.805,6.029,13.3038,4.60106,2470.74,2023-9-08T13:00:23Z
2023-09-08T11:01:04Z,42.805,6.029,13.3033,4.60108,2470.763,2023-9-08T13:03:26Z
2023-09-08T11:04:07Z,42.805,6.029,13.3037,4.60107,2470.74,2023-9-08T13:06:29Z
2023-09-08T11:07:10Z,42.805,6.029,13.3034,4.60108,2470.763,2023-9-08T13:09:32Z
2023-09-08T11:10:14Z,42.805,6.029,13.3039,4.60115,2470.763,2023-9-08T13:12:35Z
2023-09-08T11:13:17Z,42.805,6.029,13.3039,4.60113,2470.787,2023-9-08T13:15:38Z
2023-09-08T11:16:20Z,42.805,6.029,13.3039,4.60111,2470.763,2023-9-08T13:18:41Z
2023-09-08T11:19:23Z,42.805,6.029,13.3036,4.60109,2470.787,2023-9-08T13:21:44Z
2023-09-08T11:22:26Z,42.805,6.029,13.3039,4.60107,2470.777,2023-9-08T13:24:47Z
2023-09-08T11:25:29Z,42.805,6.029,13.3037,4.60106,2470.8,2023-9-08T13:27:50Z
2023-09-08T11:28:32Z,42.805,6.029,13.3036,4.60115,2470.787,2023-9-08T13:30:53Z
2023-09-08T11:31:35Z,42.805,6.029,13.3039,4.60107,2470.763,2023-9-08T13:33:56Z
2023-09-08T11:34:38Z,42.805,6.029,13.3036,4.60110,2470.763,2023-9-08T13:37:00Z
2023-09-08T11:37:41Z,42.805,6.029,13.3043,4.60114,2470.787,2023-9-08T13:40:03Z
2023-09-08T11:40:44Z,42.805,6.029,13.3037,4.60110,2470.763,2023-9-08T13:43:06Z
2023-09-08T11:43:47Z,42.805,6.029,13.3032,4.60103,2470.763,2023-9-08T13:46:09Z
2023-09-08T11:46:51Z,42.805,6.029,13.3036,4.60103,2470.773,2023-9-08T13:49:12Z
2023-09-08T11:49:54Z,42.805,6.029,13.3040,4.60112,2470.81,2023-9-08T13:52:15Z
2023-09-08T11:52:57Z,42.805,6.029,13.3032,4.60110,2470.787,2023-9-08T13:55:18Z
2023-09-08T11:56:00Z,42.805,6.029,13.3033,4.60106,2470.787,2023-9-08T13:58:21Z
2023-09-08T11:59:03Z,42.805,6.029,13.3036,4.60106,2470.763,2023-9-08T14:01:24Z
2023-09-08T12:02:06Z,42.805,6.029,13.3038,4.60108,2470.787,2023-9-08T14:04:27Z
2023-09-08T12:05:09Z,42.805,6.029,13.3036,4.60108,2470.824,2023-9-08T14:07:30Z
2023-09-08T12:08:12Z,42.805,6.029,13.3038,4.60106,2470.8,2023-9-08T14:10:33Z
2023-09-08T12:11:15Z,42.805,6.029,13.3039,4.60111,2470.763,2023-9-08T14:13:37Z
2023-09-08T12:14:18Z,42.805,6.029,13.3039,4.60107,2470.8,2023-9-08T14:16:40Z
2023-09-08T12:17:21Z,42.805,6.029,13.3042,4.60116,2470.81,2023-9-08T14:19:43Z
2023-09-08T12:20:24Z,42.805,6.029,13.3045,4.60114,2470.824,2023-9-08T14:22:46Z
2023-09-08T12:23:27Z,42.805,6.029,13.3044,4.60120,2470.81,2023-9-08T14:25:49Z
2023-09-08T12:26:31Z,42.805,6.029,13.3041,4.60117,2470.81,2023-9-08T14:28:52Z
2023-09-08T12:29:34Z,42.805,6.029,13.3046,4.60117,2470.8,2023-9-08T14:31:55Z
2023-09-08T12:32:37Z,42.805,6.029,13.3045,4.60117,2470.787,2023-9-08T14:34:58Z
2023-09-08T12:35:40Z,42.805,6.029,13.3043,4.60115,2470.81,2023-9-08T14:38:01Z
2023-09-08T12:38:43Z,42.805,6.029,13.3046,4.60121,2470.787,2023-9-08T14:41:04Z
2023-09-08T12:41:46Z,42.805,6.029,13.3046,4.60118,2470.81,2023-9-08T14:44:07Z
2023-09-08T12:44:49Z,42.805,6.029,13.3052,4.60120,2470.81,2023-9-08T14:47:10Z
2023-09-08T12:47:52Z,42.805,6.029,13.3051,4.60127,2470.824,2023-9-08T14:50:13Z
2023-09-08T12:50:55Z,42.805,6.029,13.3051,4.60123,2470.824,2023-9-08T14:53:17Z
2023-09-08T12:53:58Z,42.805,6.029,13.3051,4.60121,2470.787,2023-9-08T14:56:20Z
2023-09-08T12:57:01Z,42.805,6.029,13.3047,4.60118,2470.833,2023-9-08T14:59:23Z
2023-09-08T13:00:04Z,42.805,6.029,13.3046,4.60121,2470.787,2023-9-08T15:02:26Z
2023-09-08T13:03:08Z,42.805,6.029,13.3045,4.60121,2470.8,2023-9-08T15:05:29Z
2023-09-08T13:06:11Z,42.805,6.029,13.3047,4.60117,2470.787,2023-9-08T15:08:32Z
2023-09-08T13:09:14Z,42.805,6.029,13.3048,4.60117,2470.833,2023-9-08T15:11:35Z
2023-09-08T13:12:17Z,42.805,6.029,13.3045,4.60119,2470.824,2023-9-08T15:14:38Z
2023-09-08T13:15:20Z,42.805,6.029,13.3046,4.60116,2470.8,2023-9-08T15:17:41Z
2023-09-08T13:18:23Z,42.805,6.029,13.3053,4.60134,2470.824,2023-9-08T15:20:44Z
2023-09-08T13:21:26Z,42.805,6.029,13.3045,4.60117,2470.824,2023-9-08T15:23:47Z
2023-09-08T13:24:29Z,42.805,6.029,13.3046,4.60119,2470.81,2023-9-08T15:26:50Z
2023-09-08T13:27:32Z,42.805,6.029,13.3048,4.60122,2470.824,2023-9-08T15:29:54Z
2023-09-08T13:30:35Z,42.805,6.029,13.3054,4.60124,2470.81,2023-9-08T15:32:57Z
2023-09-08T13:33:38Z,42.805,6.029,13.3049,4.60126,2470.773,2023-9-08T15:36:00Z
2023-09-08T13:36:41Z,42.805,6.029,13.3049,4.60120,2470.81,2023-9-08T15:39:03Z
2023-09-08T13:39:44Z,42.805,6.029,13.3046,4.60120,2470.81,2023-9-08T15:42:06Z
2023-09-08T13:42:48Z,42.805,6.029,13.3039,4.60117,2470.787,2023-9-08T15:45:09Z
2023-09-08T13:45:51Z,42.805,6.029,13.3045,4.60115,2470.8,2023-9-08T15:48:12Z
2023-09-08T13:48:54Z,42.805,6.029,13.3045,4.60116,2470.8,2023-9-08T15:51:15Z
2023-09-08T13:51:57Z,42.805,6.029,13.3048,4.60119,2470.847,2023-9-08T15:54:18Z
2023-09-08T13:55:00Z,42.805,6.029,13.3045,4.60116,2470.833,2023-9-08T15:57:21Z
2023-09-08T13:58:03Z,42.805,6.029,13.3045,4.60114,2470.81,2023-9-08T16:00:24Z
2023-09-08T14:01:06Z,42.805,6.029,13.3039,4.60112,2470.847,2023-9-08T16:03:27Z
2023-09-08T14:04:09Z,42.805,6.029,13.3038,4.60116,2470.777,2023-9-08T16:06:31Z
2023-09-08T14:07:12Z,42.805,6.029,13.3044,4.60120,2470.824,2023-9-08T16:09:34Z
2023-09-08T14:10:15Z,42.805,6.029,13.3043,4.60123,2470.81,2023-9-08T16:12:37Z
2023-09-08T14:13:18Z,42.805,6.029,13.3043,4.60130,2470.847,2023-9-08T16:15:40Z
2023-09-08T14:16:21Z,42.805,6.029,13.3042,4.60114,2470.81,2023-9-08T16:18:43Z
2023-09-08T14:19:25Z,42.805,6.029,13.3041,4.60114,2470.847,2023-9-08T16:21:46Z
2023-09-08T14:22:28Z,42.805,6.029,13.3041,4.60110,2470.81,2023-9-08T16:24:49Z
2023-09-08T14:25:31Z,42.805,6.029,13.3043,4.60119,2470.824,2023-9-08T16:27:52Z
2023-09-08T14:28:34Z,42.805,6.029,13.3043,4.60119,2470.824,2023-9-08T16:30:55Z
2023-09-08T14:31:37Z,42.805,6.029,13.3040,4.60113,2470.787,2023-9-08T16:33:58Z
2023-09-08T14:34:40Z,42.805,6.029,13.3039,4.60129,2470.773,2023-9-08T16:37:01Z
2023-09-08T14:37:43Z,42.805,6.029,13.3041,4.60111,2470.81,2023-9-08T16:40:04Z
2023-09-08T14:40:46Z,42.805,6.029,13.3038,4.60117,2470.847,2023-9-08T16:43:08Z
2023-09-08T14:43:49Z,42.805,6.029,13.3043,4.60113,2470.81,2023-9-08T16:46:11Z
2023-09-08T14:46:52Z,42.805,6.029,13.3043,4.60110,2470.833,2023-9-08T16:49:14Z
2023-09-08T14:49:55Z,42.805,6.029,13.3041,4.60113,2470.824,2023-9-08T16:52:17Z
2023-09-08T14:52:58Z,42.805,6.029,13.3041,4.60112,2470.8,2023-9-08T16:55:20Z
2023-09-08T14:56:02Z,42.805,6.029,13.3041,4.60112,2470.824,2023-9-08T16:58:23Z
2023-09-08T14:59:05Z,42.805,6.029,13.3043,4.60116,2470.824,2023-9-08T17:01:26Z
2023-09-08T15:02:08Z,42.805,6.029,13.3044,4.60126,2470.833,2023-9-08T17:04:29Z
2023-09-08T15:05:11Z,42.805,6.029,13.3044,4.60122,2470.833,2023-9-08T17:07:32Z
2023-09-08T15:08:14Z,42.805,6.029,13.3042,4.60119,2470.81,2023-9-08T17:10:35Z
2023-09-08T15:11:17Z,42.805,6.029,13.3044,4.60113,2470.8,2023-9-08T17:13:38Z
2023-09-08T15:14:20Z,42.805,6.029,13.3045,4.60113,2470.787,2023-9-08T17:16:41Z